Hourly Data Report for July 05, 2021

CARIBOU POINT (AUT)
NOVA SCOTIA
Current Station Operator: ECCC - MSC

45°46'00.000" N
62°41'00.000" W
2.40 m
8200774
71415
WBK

Download Data

Hourly Data (July 2021)
Hourly Data Report for July 5, 2021
TIME
LST
Temp Definition
°C
Dew Point Definition
°C
Rel Hum Definition
%
Precip. Amount Definition
mm

Wind Dir Definition
10's deg

Wind Spd Definition
km/h
Visibility Definition
km
Stn Press Definition
kPa
Hmdx Definition


Wind Chill Definition


Weather Definition


00:00 12.2 11.0 92 0.0 33 27   100.86     LegendNANA
01:00 12.4 11.4 93 0.0 32 31   100.85     LegendNANA
02:00 12.4 11.0 92 0.0 32 36   100.82     LegendNANA
03:00 12.2 10.6 90 0.0 31 36   100.81     LegendNANA
04:00 12.4 11.1 91 0.0 31 34   100.84     LegendNANA
05:00 12.2 11.6 96 0.2 30 31   100.89     LegendNANA
06:00 12.3 11.2 93 0.2 31 38   100.93     LegendNANA
07:00 12.6 11.1 90 0.0 31 37   100.96     LegendNANA
08:00 12.6 10.9 89 0.0 31 33   101.00     LegendNANA
09:00 13.2 11.4 88 0.0 30 27   101.00     LegendNANA
10:00 13.5 11.6 89 0.0 28 24   101.03     LegendNANA
11:00 13.9 11.7 86 0.0 32 23   101.06     LegendNANA
12:00 14.4 12.1 87 0.0 30 30   101.08     LegendNANA
13:00 15.8 13.2 84 0.0 29 26   101.11     LegendNANA
14:00 16.2 13.1 82 0.0 29 26   101.12     LegendNANA
15:00 16.6 13.3 81 0.0 30 21   101.18     LegendNANA
16:00 16.6 13.2 81 0.0 29 16   101.16     LegendNANA
17:00 17.3 13.2 77 0.0 29 11   101.15     LegendNANA
18:00 18.0 11.6 66 0.0 31 5   101.16     LegendNANA
19:00 17.3 10.3 64 0.0 2 3   101.18     LegendNANA
20:00 15.4 12.8 85 0.0 15 12   101.17     LegendNANA
21:00 14.7 13.2 91 0.0 14 9   101.20     LegendNANA
22:00 14.2 12.7 91 0.0 22 2   101.21     LegendNANA
23:00 14.2 12.6 90 0.0 18 3   101.23     LegendNANA

Notes on Data Quality.

Legend

  • E = Estimated
  • M = Missing
  • NA = Not Available*
  • [empty] = Indicates an unobserved value
Date modified: